Winfield, KS

9:50 AM CST on December 09, 2019 (GMT -0600)
Strother

Weather History for KWLD - October, 2019

Change the Weather History Date:

Tuesday, October 1, 2019

  Actual Average Record
Temperature  
Mean Temperature 82 °F -  
Max Temperature 88 °F 74 °F 95 °F (2006)
Min Temperature 73 °F 51 °F 43 °F (2011)
Cooling Degree Days 16    
Growing Degree Days 32 (Base 50)    
Moisture  
Dew Point 69 °F    
Average Humidity 72    
Maximum Humidity 84    
Minimum Humidity 55    
Precipitation  
Precipitation 0.00 in - - ()
Sea Level Pressure  
Sea Level Pressure 29.88 in    
Wind  
Wind Speed 14 mph ()    
Max Wind Speed 21 mph    
Max Gust Speed 32 mph    
Visibility 10.0 miles    
Events Rain    
Averages and records for this station are not official NWS values.
T = Trace of Precipitation, MM = Missing Value Source: Averaged Metar Reports

Daily Weather History Graph

Daily Weather History Graph

Search for Another Location

Airport or City:

Astronomy

Oct. 01, 2019 Rise Set
Actual Time 7:23 AM CDT 7:11 PM CDT
Civil Twilight 6:57 AM CDT 7:37 PM CDT
Nautical Twilight 6:27 AM CDT 8:07 PM CDT
Astronomical Twilight 5:56 AM CDT 8:38 PM CDT
Moon 10:36 AM CDT (10/1) 9:30 PM CDT (10/1)
Length of Visible Light 12h 40m
Length of Day
11h 48m
Waxing Crescent, 12% of the Moon is Illuminated
Oct 1
Waxing Crescent
Oct 5
First Quarter
Oct 13
Full
Oct 21
Last Quarter
Oct 27
New

Hourly Weather History & Observations

Time (CDT) Temp. Heat Index Dew Point Humidity Pressure Visibility Wind Dir Wind Speed Gust Speed Precip Events Conditions
12:54 AM 75.0 °F - 70.0 °F 84% 29.88 in 10.0 mi South 17.3 mph 29.9 mph N/A   Clear
1:54 AM 75.0 °F - 70.0 °F 84% 29.88 in 10.0 mi South 18.4 mph 29.9 mph N/A   Clear
2:54 AM 75.9 °F - 68.0 °F 76% 29.88 in 10.0 mi South 19.6 mph 28.8 mph N/A   Clear
3:54 AM 75.9 °F - 68.0 °F 76% 29.88 in 10.0 mi South 16.1 mph 29.9 mph N/A   Clear
4:54 AM 75.9 °F - 68.0 °F 76% 29.88 in 10.0 mi South 17.3 mph 29.9 mph N/A   Clear
5:54 AM 75.9 °F - 68.0 °F 76% 29.90 in 10.0 mi South 13.8 mph - N/A   Clear
6:54 AM 75.0 °F - 69.1 °F 82% 29.91 in 10.0 mi South 12.7 mph 24.2 mph N/A   Clear
7:54 AM 75.0 °F - 69.1 °F 82% 29.92 in 10.0 mi South 12.7 mph - N/A   Clear
8:54 AM 77.0 °F - 70.0 °F 79% 29.92 in 10.0 mi South 16.1 mph - N/A   Clear
9:54 AM 79.0 °F - 71.1 °F 77% 29.93 in 10.0 mi South 13.8 mph 27.6 mph N/A   Clear
10:54 AM 82.9 °F 88.0 °F 72.0 °F 69% 29.94 in 10.0 mi South 17.3 mph 26.5 mph N/A   Clear
11:54 AM 84.9 °F 90.7 °F 72.0 °F 65% 29.92 in 10.0 mi South 18.4 mph 28.8 mph N/A   Partly Cloudy
12:54 PM 87.1 °F 92.8 °F 71.1 °F 59% 29.91 in 10.0 mi South 20.7 mph 32.2 mph N/A   Partly Cloudy
1:54 PM 88.0 °F 92.9 °F 70.0 °F 55% 29.88 in 10.0 mi SSW 20.7 mph 32.2 mph N/A   Partly Cloudy
2:54 PM 87.1 °F 92.0 °F 70.0 °F 57% 29.85 in 10.0 mi South 17.3 mph 28.8 mph N/A   Partly Cloudy
3:54 PM 84.9 °F 89.4 °F 70.0 °F 61% 29.83 in 10.0 mi South 18.4 mph - N/A   Scattered Clouds
4:54 PM 84.9 °F 88.8 °F 69.1 °F 59% 29.83 in 10.0 mi South 13.8 mph 21.9 mph N/A   Mostly Cloudy
5:54 PM 84.9 °F 88.8 °F 69.1 °F 59% 29.83 in 10.0 mi South 17.3 mph 26.5 mph N/A   Clear
6:54 PM 82.0 °F 85.5 °F 69.1 °F 65% 29.84 in 10.0 mi South 10.4 mph - N/A   Clear
7:54 PM 80.1 °F 82.9 °F 69.1 °F 69% 29.85 in 10.0 mi South 12.7 mph - N/A   Scattered Clouds
8:54 PM 78.1 °F - 70.0 °F 76% 29.88 in 10.0 mi West 6.9 mph - 0.00 in Rain Light Rain
9:54 PM 75.9 °F - 69.1 °F 79% 29.87 in 10.0 mi South 8.1 mph - 0.00 in   Scattered Clouds
10:54 PM 75.9 °F - 68.0 °F 76% 29.86 in 10.0 mi South 9.2 mph - N/A   Mostly Cloudy
11:54 PM 73.9 °F - 66.9 °F 79% 29.86 in 10.0 mi South 6.9 mph - N/A   Scattered Clouds